| time (UTC) | temp F | wind direction | speed MPH | gust MPH | rain 1hr in | rain 24hr in | rain mn in | humidity % | barometer mb |
| 20260902084027 | 73 | 149 | 0.0 | 0.0 | 0.00 | 0.00 | 0.00 | 53 | 1020.0 |
| 20260902083516 | 73 | 149 | 0.0 | 0.0 | 0.00 | 0.00 | 0.00 | 53 | 1020.0 |
| 20260902083016 | 74 | 149 | 0.0 | 0.0 | 0.00 | 0.00 | 0.00 | 52 | 1020.0 |
| 20260902082515 | 74 | 144 | 0.0 | 0.0 | 0.00 | 0.00 | 0.00 | 52 | 1020.0 |
| 20260902082014 | 74 | 142 | 0.0 | 0.0 | 0.00 | 0.00 | 0.00 | 51 | 1020.0 |
| 20260902081741 | 74 | 150 | 0.0 | 0.0 | 0.00 | 0.00 | 0.00 | 51 | 1020.0 |
| 20260902081011 | 74 | 159 | 0.0 | 0.0 | 0.00 | 0.00 | 0.00 | 51 | 1020.0 |
| 20260902080507 | 74 | 161 | 0.0 | 0.0 | 0.00 | 0.00 | 0.00 | 52 | 1020.0 |
| 20260902080004 | 74 | 154 | 0.0 | 2.0 | 0.00 | 0.00 | 0.00 | 51 | 1020.4 |
| 20260902075454 | 74 | 150 | 0.0 | 2.0 | 0.00 | 0.00 | 0.00 | 50 | 1020.4 |
| 20260902074945 | 74 | 130 | 0.0 | 0.0 | 0.00 | 0.00 | 0.00 | 50 | 1020.0 |
| 20260902074443 | 74 | 137 | 0.0 | 3.0 | 0.00 | 0.00 | 0.00 | 50 | 1020.4 |
| 20260902073935 | 75 | 142 | 0.0 | 3.0 | 0.00 | 0.00 | 0.00 | 50 | 1020.4 |
| 20260902073424 | 75 | 142 | 0.0 | 3.0 | 0.00 | 0.00 | 0.00 | 50 | 1020.4 |
| 20260902073142 | 75 | 153 | 0.0 | 3.0 | 0.00 | 0.00 | 0.00 | 49 | 1020.4 |
| 20260902072401 | 76 | 142 | 0.0 | 1.0 | 0.00 | 0.00 | 0.00 | 49 | 1020.7 |
| 20260902072115 | 76 | 131 | 0.0 | 6.0 | 0.00 | 0.00 | 0.00 | 48 | 1020.7 |
| 20260902071350 | 76 | 158 | 0.0 | 6.0 | 0.00 | 0.00 | 0.00 | 48 | 1020.4 |
| 20260902070846 | 76 | 142 | 1.0 | 3.0 | 0.00 | 0.00 | 0.00 | 47 | 1020.4 |
| 20260902070333 | 77 | 138 | 0.0 | 4.0 | 0.00 | 0.00 | 0.00 | 47 | 1020.4 |
| 20260902065813 | 77 | 137 | 0.0 | 4.0 | 0.00 | 0.00 | 0.00 | 46 | 1020.7 |
| 20260902065312 | 78 | 138 | 0.0 | 4.0 | 0.00 | 0.00 | 0.00 | 45 | 1020.4 |
| 20260902064811 | 78 | 146 | 0.0 | 1.0 | 0.00 | 0.00 | 0.00 | 45 | 1020.4 |
| 20260902064300 | 78 | 139 | 0.0 | 4.0 | 0.00 | 0.00 | 0.00 | 45 | 1020.7 |
| 20260902063758 | 78 | 129 | 0.0 | 4.0 | 0.00 | 0.00 | 0.00 | 45 | 1020.7 |
| 20260902063259 | 78 | 144 | 0.0 | 1.0 | 0.00 | 0.00 | 0.00 | 46 | 1020.4 |
| 20260902062749 | 78 | 17 | 0.0 | 0.0 | 0.00 | 0.00 | 0.00 | 45 | 1020.4 |
| 20260902062249 | 78 | 343 | 0.0 | 0.0 | 0.00 | 0.00 | 0.00 | 45 | 1020.4 |
| 20260902062004 | 78 | 337 | 0.0 | 0.0 | 0.00 | 0.00 | 0.00 | 46 | 1020.7 |
| 20260902061236 | 78 | 337 | 0.0 | 0.0 | 0.00 | 0.00 | 0.00 | 46 | 1020.4 |
| 20260902060715 | 77 | 336 | 0.0 | 0.0 | 0.00 | 0.00 | 0.00 | 48 | 1020.7 |
| 20260902060434 | 76 | 336 | 0.0 | 0.0 | 0.00 | 0.00 | 0.00 | 50 | 1021.1 |
| 20260902055928 | 76 | 336 | 0.0 | 2.0 | 0.00 | 0.00 | 0.00 | 50 | 1020.7 |
| 20260902055155 | 77 | 336 | 0.0 | 2.0 | 0.00 | 0.00 | 0.00 | 50 | 1020.4 |
| 20260902054637 | 77 | 336 | 0.0 | 0.0 | 0.00 | 0.00 | 0.00 | 50 | 1020.4 |
| 20260902054117 | 76 | 336 | 0.0 | 0.0 | 0.00 | 0.00 | 0.00 | 50 | 1020.4 |
| 20260902053610 | 76 | 336 | 0.0 | 0.0 | 0.00 | 0.00 | 0.00 | 50 | 1020.4 |
| 20260902053332 | 77 | 336 | 0.0 | 0.0 | 0.00 | 0.00 | 0.00 | 50 | 1020.4 |
| 20260902052830 | 77 | 336 | 0.0 | 0.0 | 0.00 | 0.00 | 0.00 | 50 | 1020.4 |
| 20260902052105 | 77 | 334 | 0.0 | 0.0 | 0.00 | 0.00 | 0.00 | 50 | 1020.4 |
| 20260902051555 | 77 | 334 | 0.0 | 0.0 | 0.00 | 0.00 | 0.00 | 49 | 1020.4 |
| 20260902051045 | 77 | 334 | 0.0 | 0.0 | 0.00 | 0.00 | 0.00 | 49 | 1020.4 |
| 20260902050544 | 77 | 334 | 0.0 | 0.0 | 0.00 | 0.00 | 0.00 | 49 | 1020.4 |
| 20260902050036 | 77 | 334 | 0.0 | 0.0 | 0.00 | 0.00 | 0.00 | 49 | 1020.4 |
| 20260902045535 | 78 | 334 | 0.0 | 1.0 | 0.00 | 0.00 | 0.00 | 49 | 1020.7 |
| 20260902045017 | 78 | 334 | 0.0 | 1.0 | 0.00 | 0.00 | 0.00 | 49 | 1020.7 |
| 20260902044502 | 78 | 331 | 0.0 | 0.0 | 0.00 | 0.00 | 0.00 | 49 | 1020.7 |
| 20260902043955 | 78 | 329 | 0.0 | 0.0 | 0.00 | 0.00 | 0.00 | 50 | 1020.7 |
| 20260902043446 | 78 | 325 | 0.0 | 0.0 | 0.00 | 0.00 | 0.00 | 50 | 1020.7 |
| 20260902042944 | 78 | 324 | 0.0 | 0.0 | 0.00 | 0.00 | 0.00 | 50 | 1020.7 |
| 20260902042431 | 77 | 324 | 0.0 | 0.0 | 0.00 | 0.00 | 0.00 | 51 | 1020.4 |
| 20260902041932 | 78 | 324 | 0.0 | 0.0 | 0.00 | 0.00 | 0.00 | 52 | 1020.4 |
| 20260902041418 | 77 | 324 | 0.0 | 0.0 | 0.00 | 0.00 | 0.00 | 52 | 1020.4 |
| 20260902040908 | 77 | 324 | 0.0 | 0.0 | 0.00 | 0.00 | 0.00 | 52 | 1020.4 |
| 20260902040403 | 77 | 324 | 0.0 | 0.0 | 0.00 | 0.00 | 0.00 | 52 | 1020.7 |
| 20260902035855 | 78 | 324 | 0.0 | 0.0 | 0.00 | 0.00 | 0.00 | 52 | 1020.4 |
| 20260902035352 | 78 | 324 | 0.0 | 0.0 | 0.00 | 0.00 | 0.00 | 52 | 1020.4 |
| 20260902034852 | 78 | 324 | 0.0 | 0.0 | 0.00 | 0.00 | 0.00 | 51 | 1020.4 |
| 20260902034346 | 78 | 324 | 0.0 | 0.0 | 0.00 | 0.00 | 0.00 | 51 | 1020.4 |
| 20260902033844 | 78 | 323 | 0.0 | 0.0 | 0.00 | 0.00 | 0.00 | 51 | 1020.4 |
| 20260902033343 | 78 | 315 | 0.0 | 0.0 | 0.00 | 0.00 | 0.00 | 52 | 1020.4 |
| 20260902032841 | 78 | 315 | 0.0 | 0.0 | 0.00 | 0.00 | 0.00 | 52 | 1020.4 |
| 20260902032339 | 78 | 315 | 0.0 | 0.0 | 0.00 | 0.00 | 0.00 | 52 | 1020.0 |
| 20260902031835 | 77 | 311 | 0.0 | 0.0 | 0.00 | 0.00 | 0.00 | 52 | 1020.4 |
| 20260902031335 | 77 | 270 | 0.0 | 0.0 | 0.00 | 0.00 | 0.00 | 53 | 1020.4 |
| 20260902031047 | 77 | 270 | 0.0 | 0.0 | 0.00 | 0.00 | 0.00 | 52 | 1020.0 |
| 20260902030321 | 77 | 270 | 0.0 | 0.0 | 0.00 | 0.00 | 0.00 | 52 | 1020.0 |
| 20260902025815 | 77 | 270 | 0.0 | 0.0 | 0.00 | 0.00 | 0.00 | 52 | 1020.0 |
| 20260902025306 | 77 | 270 | 0.0 | 0.0 | 0.00 | 0.00 | 0.00 | 52 | 1020.0 |
| 20260902024752 | 76 | 270 | 0.0 | 0.0 | 0.00 | 0.00 | 0.00 | 52 | 1020.0 |
| 20260902024250 | 77 | 270 | 0.0 | 0.0 | 0.00 | 0.00 | 0.00 | 52 | 1020.0 |
| 20260902023737 | 77 | 270 | 0.0 | 0.0 | 0.00 | 0.00 | 0.00 | 51 | 1020.0 |
| 20260902023234 | 77 | 270 | 0.0 | 0.0 | 0.00 | 0.00 | 0.00 | 51 | 1020.0 |
| 20260902022731 | 77 | 270 | 0.0 | 0.0 | 0.00 | 0.00 | 0.00 | 51 | 1019.7 |
| 20260902022230 | 77 | 269 | 0.0 | 0.0 | 0.00 | 0.00 | 0.00 | 52 | 1019.7 |
| 20260902021710 | 77 | 269 | 0.0 | 0.0 | 0.00 | 0.00 | 0.00 | 52 | 1019.7 |
| 20260902021204 | 78 | 269 | 0.0 | 0.0 | 0.00 | 0.00 | 0.00 | 51 | 1019.7 |
| 20260902020643 | 78 | 269 | 0.0 | 0.0 | 0.00 | 0.00 | 0.00 | 51 | 1019.4 |
| 20260902020142 | 78 | 255 | 0.0 | 0.0 | 0.00 | 0.00 | 0.00 | 51 | 1019.4 |
| 20260902015638 | 78 | 262 | 0.0 | 0.0 | 0.00 | 0.00 | 0.00 | 51 | 1019.0 |
| 20260902015132 | 78 | 258 | 0.0 | 0.0 | 0.00 | 0.00 | 0.00 | 51 | 1019.4 |
| 20260902014632 | 78 | 292 | 0.0 | 7.0 | 0.00 | 0.00 | 0.00 | 51 | 1019.0 |
| 20260902014111 | 78 | 316 | 0.0 | 7.0 | 0.00 | 0.00 | 0.00 | 51 | 1019.4 |
| 20260902014054 | 78 | 305 | 0.0 | 1.0 | 0.00 | 0.00 | 0.00 | 51 | 1019.4 |
| 20260902013320 | 78 | 256 | 0.0 | 9.0 | 0.00 | 0.00 | 0.00 | 52 | 1019.0 |
| 20260902012541 | 78 | 312 | 0.0 | 9.0 | 0.00 | 0.00 | 0.00 | 51 | 1019.0 |
| 20260902012036 | 79 | 226 | 0.0 | 7.0 | 0.00 | 0.00 | 0.00 | 50 | 1019.0 |
| 20260902011530 | 79 | 207 | 1.0 | 7.0 | 0.00 | 0.00 | 0.00 | 49 | 1019.4 |
| 20260902011015 | 80 | 227 | 0.0 | 8.0 | 0.00 | 0.00 | 0.00 | 47 | 1019.4 |
| 20260902010505 | 81 | 230 | 1.0 | 8.0 | 0.00 | 0.00 | 0.00 | 46 | 1019.0 |
| 20260902005944 | 83 | 209 | 0.0 | 4.0 | 0.00 | 0.00 | 0.00 | 43 | 1019.0 |
| 20260902005414 | 88 | 213 | 0.0 | 8.0 | 0.00 | 0.00 | 0.00 | 34 | 1019.4 |
| 20260902005344 | 88 | 132 | 1.0 | 8.0 | 0.00 | 0.00 | 0.00 | 30 | 1018.3 |
| 20260902004352 | 88 | 119 | 1.0 | 7.0 | 0.00 | 0.00 | 0.00 | 30 | 1018.7 |
| 20260902003847 | 88 | 133 | 4.0 | 7.0 | 0.00 | 0.00 | 0.00 | 29 | 1018.3 |
| 20260902003347 | 89 | 138 | 0.0 | 10.0 | 0.00 | 0.00 | 0.00 | 29 | 1018.3 |
| 20260902002841 | 89 | 132 | 0.0 | 10.0 | 0.00 | 0.00 | 0.00 | 29 | 1018.3 |
| 20260902002336 | 89 | 151 | 0.0 | 10.0 | 0.00 | 0.00 | 0.00 | 29 | 1018.3 |
| 20260902001815 | 89 | 155 | 2.0 | 9.0 | 0.00 | 0.00 | 0.00 | 29 | 1018.3 |
| 20260902001310 | 89 | 164 | 2.0 | 9.0 | 0.00 | 0.00 | 0.00 | 29 | 1018.3 |
| 20260902000805 | 89 | 119 | 0.0 | 8.0 | 0.00 | 0.00 | 0.00 | 29 | 1018.3 |
| 20260902000258 | 90 | 130 | 0.0 | 11.0 | 0.00 | 0.00 | 0.00 | 29 | 1018.0 |
| 20260901235747 | 90 | 145 | 0.0 | 11.0 | 0.00 | 0.00 | 0.00 | 29 | 1018.0 |
| 20260901235242 | 90 | 144 | 2.0 | 13.0 | 0.00 | 0.00 | 0.00 | 28 | 1018.3 |
| 20260901234732 | 90 | 142 | 7.0 | 13.0 | 0.00 | 0.00 | 0.00 | 28 | 1018.0 |
| 20260901234216 | 90 | 175 | 1.0 | 11.0 | 0.00 | 0.00 | 0.00 | 28 | 1018.3 |
| 20260901233713 | 91 | 118 | 1.0 | 11.0 | 0.00 | 0.00 | 0.00 | 28 | 1018.0 |
| 20260901233212 | 91 | 157 | 7.0 | 14.0 | 0.00 | 0.00 | 0.00 | 28 | 1018.0 |
| 20260901232714 | 91 | 126 | 1.0 | 14.0 | 0.00 | 0.00 | 0.00 | 28 | 1018.3 |
| 20260901232439 | 91 | 94 | 1.0 | 13.0 | 0.00 | 0.00 | 0.00 | 28 | 1018.0 |
| 20260901231713 | 91 | 117 | 7.0 | 13.0 | 0.00 | 0.00 | 0.00 | 28 | 1018.3 |
| 20260901231211 | 90 | 134 | 9.0 | 10.0 | 0.00 | 0.00 | 0.00 | 29 | 1018.3 |
| 20260901230702 | 90 | 106 | 0.0 | 13.0 | 0.00 | 0.00 | 0.00 | 29 | 1018.3 |
| 20260901230203 | 90 | 137 | 0.0 | 13.0 | 0.00 | 0.00 | 0.00 | 29 | 1018.3 |
| 20260901225930 | 91 | 213 | 0.0 | 9.0 | 0.00 | 0.00 | 0.00 | 27 | 1018.0 |
| 20260901225425 | 92 | 90 | 0.0 | 7.0 | 0.00 | 0.00 | 0.00 | 27 | 1018.0 |
| 20260901224645 | 92 | 132 | 3.0 | 4.0 | 0.00 | 0.00 | 0.00 | 27 | 1018.0 |
| 20260901224623 | 92 | 130 | 0.0 | 9.0 | 0.00 | 0.00 | 0.00 | 27 | 1018.0 |
| 20260901223629 | 93 | 120 | 1.0 | 10.0 | 0.00 | 0.00 | 0.00 | 27 | 1018.3 |
| 20260901223123 | 92 | 128 | 0.0 | 8.0 | 0.00 | 0.00 | 0.00 | 26 | 1018.0 |
| 20260901222614 | 92 | 112 | 0.0 | 3.0 | 0.00 | 0.00 | 0.00 | 26 | 1018.3 |
| 20260901222321 | 92 | 134 | 0.0 | 4.0 | 0.00 | 0.00 | 0.00 | 27 | 1018.3 |
| 20260901221555 | 92 | 114 | 2.0 | 14.0 | 0.00 | 0.00 | 0.00 | 27 | 1018.0 |
| 20260901221046 | 93 | 117 | 2.0 | 14.0 | 0.00 | 0.00 | 0.00 | 26 | 1018.3 |
| 20260901220545 | 93 | 97 | 0.0 | 6.0 | 0.00 | 0.00 | 0.00 | 26 | 1018.3 |
| 20260901220034 | 92 | 124 | 0.0 | 13.0 | 0.00 | 0.00 | 0.00 | 28 | 1018.3 |
| 20260901215533 | 92 | 147 | 6.0 | 13.0 | 0.00 | 0.00 | 0.00 | 28 | 1018.3 |
| 20260901215011 | 92 | 126 | 6.0 | 13.0 | 0.00 | 0.00 | 0.00 | 28 | 1018.3 |
| 20260901214505 | 92 | 161 | 0.0 | 13.0 | 0.00 | 0.00 | 0.00 | 27 | 1018.3 |
| 20260901214002 | 92 | 129 | 3.0 | 13.0 | 0.00 | 0.00 | 0.00 | 27 | 1018.7 |
| 20260901213501 | 91 | 104 | 0.0 | 10.0 | 0.00 | 0.00 | 0.00 | 27 | 1018.7 |
| 20260901213002 | 91 | 134 | 1.0 | 8.0 | 0.00 | 0.00 | 0.00 | 28 | 1018.7 |
| 20260901212455 | 91 | 164 | 0.0 | 9.0 | 0.00 | 0.00 | 0.00 | 28 | 1018.7 |
| 20260901211950 | 91 | 164 | 6.0 | 10.0 | 0.00 | 0.00 | 0.00 | 28 | 1019.0 |
| 20260901211445 | 90 | 150 | 0.0 | 10.0 | 0.00 | 0.00 | 0.00 | 29 | 1019.0 |
| 20260901210935 | 90 | 140 | 4.0 | 9.0 | 0.00 | 0.00 | 0.00 | 29 | 1019.0 |
| 20260901210432 | 90 | 158 | 0.0 | 10.0 | 0.00 | 0.00 | 0.00 | 29 | 1019.4 |
| 20260901205931 | 91 | 129 | 0.0 | 10.0 | 0.00 | 0.00 | 0.00 | 28 | 1019.4 |
| 20260901205427 | 92 | 144 | 0.0 | 7.0 | 0.00 | 0.00 | 0.00 | 27 | 1019.4 |
| 20260901205353 | 92 | 170 | 0.0 | 6.0 | 0.00 | 0.00 | 0.00 | 28 | 1019.7 |
| 20260901204409 | 90 | 324 | 0.0 | 8.0 | 0.00 | 0.00 | 0.00 | 29 | 1019.4 |
| 20260901203908 | 92 | 75 | 0.0 | 8.0 | 0.00 | 0.00 | 0.00 | 28 | 1019.4 |
| 20260901203352 | 91 | 128 | 0.0 | 13.0 | 0.00 | 0.00 | 0.00 | 29 | 1019.7 |
| 20260901202838 | 89 | 136 | 0.0 | 13.0 | 0.00 | 0.00 | 0.00 | 30 | 1019.7 |
| 20260901202817 | 90 | 126 | 7.0 | 13.0 | 0.00 | 0.00 | 0.00 | 30 | 1019.7 |
| 20260901201828 | 92 | 133 | 1.0 | 9.0 | 0.00 | 0.00 | 0.00 | 28 | 1019.7 |
| 20260901201318 | 92 | 209 | 0.0 | 6.0 | 0.00 | 0.00 | 0.00 | 29 | 1020.0 |
| 20260901200809 | 91 | 129 | 0.0 | 7.0 | 0.00 | 0.00 | 0.00 | 29 | 1020.0 |
| 20260901200300 | 90 | 165 | 0.0 | 8.0 | 0.00 | 0.00 | 0.00 | 29 | 1019.7 |
| 20260901195753 | 89 | 114 | 3.0 | 16.0 | 0.00 | 0.00 | 0.00 | 31 | 1020.0 |
| 20260901195243 | 89 | 138 | 11.0 | 16.0 | 0.00 | 0.00 | 0.00 | 32 | 1020.0 |
| 20260901194744 | 89 | 136 | 0.0 | 3.0 | 0.00 | 0.00 | 0.00 | 31 | 1020.0 |
| 20260901194234 | 89 | 122 | 0.0 | 9.0 | 0.00 | 0.00 | 0.00 | 31 | 1020.0 |
| 20260901193723 | 91 | 135 | 0.0 | 9.0 | 0.00 | 0.00 | 0.00 | 30 | 1020.4 |
| 20260901193706 | 89 | 184 | 0.0 | 7.0 | 0.00 | 0.00 | 0.00 | 31 | 1020.0 |
| 20260901192906 | 89 | 133 | 4.0 | 10.0 | 0.00 | 0.00 | 0.00 | 31 | 1020.4 |
| 20260901192755 | 90 | 140 | 0.0 | 10.0 | 0.00 | 0.00 | 0.00 | 30 | 1020.0 |
| 20260901191906 | 91 | 163 | 1.0 | 8.0 | 0.00 | 0.00 | 0.00 | 30 | 1020.4 |
| 20260901191142 | 91 | 139 | 0.0 | 13.0 | 0.00 | 0.00 | 0.00 | 29 | 1020.4 |
| 20260901190635 | 91 | 179 | 0.0 | 13.0 | 0.00 | 0.00 | 0.00 | 30 | 1020.7 |
| 20260901190334 | 91 | 199 | 1.0 | 10.0 | 0.00 | 0.00 | 0.00 | 30 | 1020.7 |
| 20260901185611 | 90 | 115 | 0.0 | 9.0 | 0.00 | 0.00 | 0.00 | 30 | 1020.4 |
| 20260901185328 | 90 | 140 | 8.0 | 11.0 | 0.00 | 0.00 | 0.00 | 31 | 1020.4 |
| 20260901184827 | 91 | 104 | 1.0 | 13.0 | 0.00 | 0.00 | 0.00 | 30 | 1021.1 |
| 20260901184057 | 90 | 161 | 0.0 | 13.0 | 0.00 | 0.00 | 0.00 | 30 | 1020.7 |
| 20260901183557 | 89 | 100 | 6.0 | 13.0 | 0.00 | 0.00 | 0.00 | 31 | 1021.1 |
| 20260901183058 | 89 | 136 | 1.0 | 15.0 | 0.00 | 0.00 | 0.00 | 32 | 1020.7 |
| 20260901182558 | 89 | 129 | 0.0 | 9.0 | 0.00 | 0.00 | 0.00 | 32 | 1021.1 |
| 20260901182051 | 88 | 137 | 3.0 | 14.0 | 0.00 | 0.00 | 0.00 | 32 | 1021.1 |
| 20260901181548 | 89 | 128 | 5.0 | 14.0 | 0.00 | 0.00 | 0.00 | 31 | 1021.1 |
| 20260901181037 | 88 | 102 | 0.0 | 10.0 | 0.00 | 0.00 | 0.00 | 32 | 1021.1 |
| 20260901180519 | 88 | 102 | 5.0 | 9.0 | 0.00 | 0.00 | 0.00 | 32 | 1021.1 |
| 20260901180009 | 89 | 117 | 2.0 | 10.0 | 0.00 | 0.00 | 0.00 | 31 | 1021.4 |
| 20260901175501 | 88 | 145 | 1.0 | 10.0 | 0.00 | 0.00 | 0.00 | 32 | 1021.4 |
| 20260901174959 | 88 | 157 | 4.0 | 18.0 | 0.00 | 0.00 | 0.00 | 33 | 1021.1 |
| 20260901174451 | 89 | 118 | 6.0 | 18.0 | 0.00 | 0.00 | 0.00 | 33 | 1021.7 |
| 20260901174214 | 87 | 131 | 0.0 | 13.0 | 0.00 | 0.00 | 0.00 | 34 | 1021.4 |
| 20260901173444 | 88 | 81 | 0.0 | 14.0 | 0.00 | 0.00 | 0.00 | 33 | 1021.4 |
| 20260901172939 | 87 | 140 | 6.0 | 14.0 | 0.00 | 0.00 | 0.00 | 35 | 1021.7 |
| 20260901172434 | 88 | 114 | 0.0 | 11.0 | 0.00 | 0.00 | 0.00 | 34 | 1021.7 |
| 20260901171934 | 87 | 125 | 4.0 | 11.0 | 0.00 | 0.00 | 0.00 | 35 | 1021.7 |
| 20260901171426 | 87 | 129 | 1.0 | 13.0 | 0.00 | 0.00 | 0.00 | 37 | 1021.7 |
| 20260901170915 | 86 | 155 | 1.0 | 14.0 | 0.00 | 0.00 | 0.00 | 38 | 1021.7 |
| 20260901170415 | 86 | 109 | 1.0 | 16.0 | 0.00 | 0.00 | 0.00 | 37 | 1021.7 |
| 20260901165900 | 85 | 120 | 6.0 | 16.0 | 0.00 | 0.00 | 0.00 | 38 | 1021.7 |
| 20260901165357 | 86 | 147 | 2.0 | 16.0 | 0.00 | 0.00 | 0.00 | 40 | 1021.7 |
| 20260901164858 | 85 | 134 | 8.0 | 16.0 | 0.00 | 0.00 | 0.00 | 42 | 1022.1 |
| 20260901164338 | 85 | 141 | 2.0 | 16.0 | 0.00 | 0.00 | 0.00 | 43 | 1021.7 |
| 20260901163835 | 84 | 114 | 1.0 | 16.0 | 0.00 | 0.00 | 0.00 | 41 | 1021.7 |
| 20260901163331 | 84 | 133 | 4.0 | 13.0 | 0.00 | 0.00 | 0.00 | 42 | 1021.7 |
| 20260901162826 | 83 | 130 | 9.0 | 10.0 | 0.00 | 0.00 | 0.00 | 44 | 1021.7 |
| 20260901162318 | 83 | 126 | 1.0 | 13.0 | 0.00 | 0.00 | 0.00 | 46 | 1021.7 |
| 20260901161812 | 83 | 113 | 8.0 | 13.0 | 0.00 | 0.00 | 0.00 | 46 | 1021.7 |
| 20260901161304 | 82 | 147 | 1.0 | 15.0 | 0.00 | 0.00 | 0.00 | 47 | 1022.1 |
| 20260901160757 | 83 | 154 | 6.0 | 15.0 | 0.00 | 0.00 | 0.00 | 47 | 1021.7 |
| 20260901160236 | 83 | 183 | 0.0 | 13.0 | 0.00 | 0.00 | 0.00 | 47 | 1021.7 |
| 20260901155735 | 82 | 155 | 8.0 | 11.0 | 0.00 | 0.00 | 0.00 | 48 | 1021.7 |
| 20260901155452 | 82 | 139 | 1.0 | 13.0 | 0.00 | 0.00 | 0.00 | 48 | 1021.7 |
| 20260901154717 | 81 | 138 | 3.0 | 13.0 | 0.00 | 0.00 | 0.00 | 50 | 1022.1 |
| 20260901154207 | 80 | 134 | 4.0 | 13.0 | 0.00 | 0.00 | 0.00 | 51 | 1021.7 |
| 20260901153704 | 80 | 121 | 8.0 | 13.0 | 0.00 | 0.00 | 0.00 | 51 | 1021.7 |
| 20260901153155 | 80 | 207 | 0.0 | 10.0 | 0.00 | 0.00 | 0.00 | 52 | 1022.1 |
| 20260901152645 | 80 | 180 | 0.0 | 13.0 | 0.00 | 0.00 | 0.00 | 51 | 1021.7 |
| 20260901152135 | 79 | 155 | 8.0 | 13.0 | 0.00 | 0.00 | 0.00 | 52 | 1021.7 |
| 20260901151632 | 79 | 112 | 2.0 | 13.0 | 0.00 | 0.00 | 0.00 | 53 | 1021.7 |
| 20260901151129 | 79 | 139 | 0.0 | 15.0 | 0.00 | 0.00 | 0.00 | 51 | 1022.1 |
| 20260901150623 | 79 | 127 | 8.0 | 15.0 | 0.00 | 0.00 | 0.00 | 52 | 1021.7 |
| 20260901150114 | 78 | 130 | 4.0 | 14.0 | 0.00 | 0.00 | 0.00 | 53 | 1021.7 |
| 20260901145613 | 77 | 191 | 0.0 | 10.0 | 0.00 | 0.00 | 0.00 | 54 | 1021.7 |
| 20260901145100 | 76 | 139 | 0.0 | 10.0 | 0.00 | 0.00 | 0.00 | 55 | 1021.7 |
| 20260901144551 | 76 | 117 | 0.0 | 7.0 | 0.00 | 0.00 | 0.00 | 55 | 1021.7 |
| 20260901144036 | 76 | 149 | 1.0 | 9.0 | 0.00 | 0.00 | 0.00 | 56 | 1022.1 |
| 20260901143536 | 75 | 174 | 0.0 | 9.0 | 0.00 | 0.00 | 0.00 | 56 | 1022.1 |
| 20260901143030 | 74 | 163 | 1.0 | 10.0 | 0.00 | 0.00 | 0.00 | 57 | 1022.1 |
| 20260901142527 | 74 | 130 | 0.0 | 10.0 | 0.00 | 0.00 | 0.00 | 58 | 1022.1 |
| 20260901142019 | 73 | 162 | 1.0 | 7.0 | 0.00 | 0.00 | 0.00 | 58 | 1022.1 |
| 20260901141514 | 72 | 130 | 0.0 | 0.0 | 0.00 | 0.00 | 0.00 | 59 | 1022.1 |
| 20260901141005 | 71 | 183 | 0.0 | 3.0 | 0.00 | 0.00 | 0.00 | 60 | 1021.7 |
| 20260901140729 | 71 | 189 | 0.0 | 4.0 | 0.00 | 0.00 | 0.00 | 60 | 1022.1 |
| 20260901135953 | 71 | 153 | 0.0 | 4.0 | 0.00 | 0.00 | 0.00 | 60 | 1021.7 |
| 20260901135435 | 71 | 158 | 0.0 | 8.0 | 0.00 | 0.00 | 0.00 | 60 | 1021.7 |
| 20260901134915 | 71 | 110 | 1.0 | 8.0 | 0.00 | 0.00 | 0.00 | 60 | 1021.7 |
| 20260901134411 | 72 | 141 | 5.0 | 8.0 | 0.00 | 0.00 | 0.00 | 59 | 1021.7 |
| 20260901133902 | 72 | 107 | 0.0 | 6.0 | 0.00 | 0.00 | 0.00 | 58 | 1021.4 |
| 20260901133358 | 71 | 121 | 0.0 | 2.0 | 0.00 | 0.00 | 0.00 | 59 | 1021.4 |
| 20260901132855 | 71 | 121 | 0.0 | 3.0 | 0.00 | 0.00 | 0.00 | 59 | 1021.7 |
| 20260901132351 | 70 | 125 | 0.0 | 3.0 | 0.00 | 0.00 | 0.00 | 60 | 1021.7 |
| 20260901131834 | 70 | 104 | 0.0 | 1.0 | 0.00 | 0.00 | 0.00 | 60 | 1021.7 |
| 20260901131328 | 70 | 107 | 0.0 | 2.0 | 0.00 | 0.00 | 0.00 | 60 | 1021.4 |
| 20260901130827 | 69 | 115 | 1.0 | 2.0 | 0.00 | 0.00 | 0.00 | 60 | 1021.4 |
| 20260901130323 | 69 | 81 | 0.0 | 2.0 | 0.00 | 0.00 | 0.00 | 61 | 1021.4 |
| 20260901125812 | 69 | 113 | 0.0 | 2.0 | 0.00 | 0.00 | 0.00 | 61 | 1021.1 |
| 20260901125301 | 69 | 111 | 0.0 | 0.0 | 0.00 | 0.00 | 0.00 | 61 | 1021.1 |
| 20260901124758 | 69 | 128 | 0.0 | 0.0 | 0.00 | 0.00 | 0.00 | 60 | 1021.4 |
| 20260901124250 | 69 | 112 | 0.0 | 0.0 | 0.00 | 0.00 | 0.00 | 60 | 1021.4 |
| 20260901123747 | 69 | 113 | 0.0 | 0.0 | 0.00 | 0.00 | 0.00 | 60 | 1021.4 |
| 20260901123234 | 69 | 110 | 0.0 | 0.0 | 0.00 | 0.00 | 0.00 | 60 | 1021.1 |
| 20260901122726 | 69 | 99 | 0.0 | 0.0 | 0.00 | 0.00 | 0.00 | 60 | 1021.1 |
| 20260901122225 | 69 | 102 | 0.0 | 0.0 | 0.00 | 0.00 | 0.00 | 59 | 1021.1 |
| 20260901121708 | 69 | 106 | 0.0 | 0.0 | 0.00 | 0.00 | 0.00 | 59 | 1021.1 |
| 20260901121155 | 70 | 109 | 0.0 | 0.0 | 0.00 | 0.00 | 0.00 | 59 | 1020.7 |
| 20260901120911 | 70 | 111 | 0.0 | 0.0 | 0.00 | 0.00 | 0.00 | 58 | 1020.7 |
| 20260901120411 | 70 | 111 | 0.0 | 0.0 | 0.00 | 0.00 | 0.00 | 58 | 1021.1 |
| 20260901115641 | 69 | 109 | 0.0 | 0.0 | 0.00 | 0.00 | 0.00 | 59 | 1020.7 |
| 20260901115132 | 69 | 109 | 0.0 | 0.0 | 0.00 | 0.00 | 0.00 | 58 | 1021.1 |
| 20260901114843 | 69 | 113 | 0.0 | 1.0 | 0.00 | 0.00 | 0.00 | 58 | 1021.1 |
| 20260901114334 | 70 | 114 | 0.0 | 3.0 | 0.00 | 0.00 | 0.00 | 58 | 1020.7 |
| 20260901113612 | 70 | 112 | 0.0 | 3.0 | 0.00 | 0.00 | 0.00 | 58 | 1020.7 |
| 20260901113114 | 70 | 112 | 3.0 | 3.0 | 0.00 | 0.00 | 0.00 | 58 | 1021.1 |
| 20260901112603 | 70 | 116 | 0.0 | 0.0 | 0.00 | 0.00 | 0.00 | 57 | 1020.7 |
| 20260901112100 | 70 | 115 | 0.0 | 0.0 | 0.00 | 0.00 | 0.00 | 57 | 1020.7 |
| 20260901111558 | 70 | 119 | 0.0 | 0.0 | 0.00 | 0.00 | 0.00 | 57 | 1020.7 |
| 20260901111058 | 70 | 112 | 0.0 | 1.0 | 0.00 | 0.00 | 0.00 | 57 | 1021.1 |
| 20260901110552 | 70 | 110 | 0.0 | 1.0 | 0.00 | 0.00 | 0.00 | 56 | 1020.7 |
| 20260901110257 | 70 | 106 | 0.0 | 0.0 | 0.00 | 0.00 | 0.00 | 56 | 1020.7 |
| 20260901105527 | 70 | 110 | 0.0 | 0.0 | 0.00 | 0.00 | 0.00 | 56 | 1020.7 |
| 20260901105017 | 70 | 114 | 0.0 | 0.0 | 0.00 | 0.00 | 0.00 | 56 | 1020.4 |
| 20260901104515 | 70 | 106 | 0.0 | 0.0 | 0.00 | 0.00 | 0.00 | 56 | 1021.1 |
| 20260901103515 | 70 | 114 | 0.0 | 0.0 | 0.00 | 0.00 | 0.00 | 56 | 1020.7 |
| 20260901103004 | 70 | 107 | 0.0 | 0.0 | 0.00 | 0.00 | 0.00 | 56 | 1020.7 |
| 20260901102454 | 70 | 111 | 0.0 | 0.0 | 0.00 | 0.00 | 0.00 | 56 | 1020.4 |
| 20260901101952 | 70 | 110 | 0.0 | 0.0 | 0.00 | 0.00 | 0.00 | 56 | 1020.7 |
| 20260901101443 | 70 | 104 | 0.0 | 0.0 | 0.00 | 0.00 | 0.00 | 56 | 1020.4 |
| 20260901100935 | 70 | 106 | 0.0 | 0.0 | 0.00 | 0.00 | 0.00 | 56 | 1020.7 |
| 20260901100425 | 70 | 106 | 0.0 | 0.0 | 0.00 | 0.00 | 0.00 | 56 | 1020.7 |
| 20260901095926 | 70 | 107 | 0.0 | 0.0 | 0.00 | 0.00 | 0.00 | 56 | 1020.4 |
| 20260901095415 | 70 | 107 | 0.0 | 1.0 | 0.00 | 0.00 | 0.00 | 55 | 1020.7 |
| 20260901094914 | 71 | 107 | 0.0 | 1.0 | 0.00 | 0.00 | 0.00 | 55 | 1020.7 |
| 20260901094412 | 71 | 108 | 0.0 | 0.0 | 0.00 | 0.00 | 0.00 | 54 | 1020.7 |
| 20260901093910 | 71 | 114 | 0.0 | 0.0 | 0.00 | 0.00 | 0.00 | 54 | 1020.7 |
| 20260901093412 | 71 | 120 | 0.0 | 0.0 | 0.00 | 0.00 | 0.00 | 54 | 1020.7 |
| 20260901093130 | 71 | 121 | 0.0 | 0.0 | 0.00 | 0.00 | 0.00 | 54 | 1021.1 |
| 20260901092634 | 71 | 117 | 0.0 | 0.0 | 0.00 | 0.00 | 0.00 | 53 | 1020.4 |
| 20260901091856 | 71 | 120 | 0.0 | 0.0 | 0.00 | 0.00 | 0.00 | 53 | 1020.7 |
| 20260901091355 | 71 | 123 | 0.0 | 0.0 | 0.00 | 0.00 | 0.00 | 52 | 1020.4 |
| 20260901090835 | 72 | 117 | 0.0 | 0.0 | 0.00 | 0.00 | 0.00 | 52 | 1020.7 |
| 20260901090531 | 72 | 115 | 0.0 | 0.0 | 0.00 | 0.00 | 0.00 | 52 | 1020.7 |
| 20260901085811 | 72 | 117 | 0.0 | 0.0 | 0.00 | 0.00 | 0.00 | 52 | 1020.7 |
| 20260901085305 | 72 | 108 | 0.0 | 3.0 | 0.00 | 0.00 | 0.00 | 51 | 1020.7 |
| 20260901084800 | 72 | 116 | 0.0 | 3.0 | 0.00 | 0.00 | 0.00 | 51 | 1020.7 |